Patuxent River, MD

11:36 AM EST on December 13, 2017 (GMT -0500)
Patuxent River Naval Air Station

Weather History for KNHK - December, 2013

Change the Weather History Date:

Monday, December 16, 2013

  Actual Average Record
Temperature  
Mean Temperature 33 °F -  
Max Temperature 39 °F 47 °F 69 °F (1996)
Min Temperature 27 °F 33 °F 18 °F (1989)
Degree Days  
Heating Degree Days 32    
Moisture  
Dew Point 24 °F    
Average Humidity 69    
Maximum Humidity 85    
Minimum Humidity 59    
Precipitation  
Precipitation 0.00 in - - ()
Sea Level Pressure  
Sea Level Pressure 30.12 in    
Wind  
Wind Speed 4 mph (NE)    
Max Wind Speed 13 mph    
Max Gust Speed -    
Visibility 10 miles    
Events      
Averages and records for this station are not official NWS values.
T = Trace of Precipitation, MM = Missing Value Source: NWS Daily Summary

Daily Weather History Graph

Daily Weather History Graph

Search for Another Location

Airport or City:

Trip Planner

Search our weather history database for the weather conditions in past years. The results will help you decide how hot, cold, wet, or windy it might be!

Date:

Astronomy

Dec. 16, 2013 Rise Set
Actual Time 7:16 AM EST 4:46 PM EST
Civil Twilight 6:46 AM EST 5:16 PM EST
Nautical Twilight 6:13 AM EST 5:49 PM EST
Astronomical Twilight 5:41 AM EST 6:21 PM EST
Moon 4:34 PM EST (12/16) 6:23 AM EST (12/16)
Length of Visible Light 10h 30m
Length of Day
9h 30m
Full, 100% of the Moon is Illuminated
Dec 16
Full
Dec 17
Full
Dec 25
Last Quarter
Jan 1
New
Jan 7
First Quarter

Hourly Weather History & Observations

Time (EST) Temp. Windchill Dew Point Humidity Pressure Visibility Wind Dir Wind Speed Gust Speed Precip Events Conditions
12:52 AM 27.0 °F - 23.0 °F 85% 29.97 in 10.0 mi Calm Calm - N/A   Clear
1:52 AM 30.9 °F - 24.1 °F 76% 29.98 in 10.0 mi Calm Calm - N/A   Clear
2:52 AM 28.9 °F - 23.0 °F 78% 29.99 in 10.0 mi Calm Calm - 0.00 in   Clear
3:52 AM 30.9 °F - 25.0 °F 79% 30.01 in 10.0 mi Calm Calm - N/A   Scattered Clouds
4:52 AM 27.0 °F 21.6 °F 21.9 °F 81% 30.03 in 10.0 mi WNW 4.6 mph - 0.00 in   Clear
5:03 AM 27.0 °F 20.5 °F 21.9 °F 81% 30.03 in 10.0 mi WNW 5.8 mph - N/A   Partly Cloudy
5:52 AM 30.0 °F - 25.0 °F 82% 30.04 in 10.0 mi Calm Calm - N/A   Partly Cloudy
6:52 AM 32.0 °F 26.4 °F 25.0 °F 75% 30.08 in 10.0 mi NW 5.8 mph - N/A   Partly Cloudy
7:52 AM 30.0 °F - 24.1 °F 79% 30.09 in 10.0 mi Calm Calm - N/A   Partly Cloudy
8:52 AM 37.0 °F 31.6 °F 25.0 °F 62% 30.12 in 10.0 mi NNW 6.9 mph - N/A   Scattered Clouds
9:52 AM 39.0 °F 32.3 °F 26.1 °F 60% 30.14 in 10.0 mi North 10.4 mph - N/A   Mostly Cloudy
10:52 AM 37.9 °F 30.5 °F 25.0 °F 60% 30.15 in 10.0 mi NNE 11.5 mph - N/A   Mostly Cloudy
11:52 AM 37.0 °F 28.9 °F 24.1 °F 59% 30.15 in 10.0 mi NNE 12.7 mph - N/A   Overcast
12:52 PM 37.0 °F 31.0 °F 24.1 °F 59% 30.14 in 10.0 mi North 8.1 mph - N/A   Mostly Cloudy
1:52 PM 37.0 °F 29.3 °F 24.1 °F 59% 30.14 in 10.0 mi NNE 11.5 mph - N/A   Mostly Cloudy
2:52 PM 37.0 °F 30.4 °F 24.1 °F 59% 30.14 in 10.0 mi NNE 9.2 mph - N/A   Mostly Cloudy
3:52 PM 35.1 °F 28.6 °F 21.9 °F 59% 30.17 in 10.0 mi NNE 8.1 mph - N/A   Mostly Cloudy
4:52 PM 35.1 °F 30.1 °F 23.0 °F 61% 30.18 in 10.0 mi NE 5.8 mph - N/A   Mostly Cloudy
5:52 PM 34.0 °F 28.8 °F 23.0 °F 64% 30.18 in 10.0 mi ENE 5.8 mph - N/A   Mostly Cloudy
6:52 PM 33.1 °F 27.7 °F 24.1 °F 70% 30.19 in 10.0 mi East 5.8 mph - N/A   Mostly Cloudy
7:52 PM 34.0 °F 26.0 °F 24.1 °F 67% 30.21 in 10.0 mi East 10.4 mph - N/A   Mostly Cloudy
8:52 PM 34.0 °F 25.5 °F 25.0 °F 70% 30.20 in 10.0 mi ESE 11.5 mph - N/A   Scattered Clouds
9:52 PM 35.1 °F 27.9 °F 26.1 °F 70% 30.19 in 10.0 mi East 9.2 mph - N/A   Mostly Cloudy
10:52 PM 35.1 °F 28.6 °F 27.0 °F 72% 30.19 in 10.0 mi ESE 8.1 mph - N/A   Mostly Cloudy
11:52 PM 36.0 °F 27.5 °F 27.0 °F 70% 30.17 in 10.0 mi ESE 12.7 mph - N/A   Partly Cloudy